Regional Weather Roundup
Issued by NWS

Home | Current Version | Previous Version | Graphics & Text | Print | Product List | Glossary On
Versions: 1 2 3 4 5 6 7 8 9 10 11 12 13 14 15 16 17 18 19 20 21 22 23 24 25 26 27 28 29 30 31 32 33 34 35 36 37 38 39 40 41 42 43 44 45 46 47 48 49 50
000
ASUS45 KSLC 241610
RWRUT

UTAH REGIONAL WEATHER ROUNDUP
NATIONAL WEATHER SERVICE SALT LAKE CITY UT
1000 AM MDT THU JUL 24 2014

UTZ001>011-023>025-241700-

NORTHERN UTAH

CITY           SKY/WX    TMP DP  RH WIND       PRES   REMARKS
HILL AFB       SUNNY     80  48  32 E7        30.09S
LOGAN          NOT AVBL
OGDEN          SUNNY     80  48  32 MISG      30.06S
PROVO AIRPORT  PTSUNNY   82  50  32 SE9       30.10F
SALT LAKE CITY PTSUNNY   83  44  25 N13       30.05R
VERNAL         PTSUNNY   72  56  57 W3        30.21F
WENDOVER       SUNNY     84  30  14 NW12      30.07S
HEBER CITY     MOSUNNY   81  43  26 S23G33    30.17S
WEST JORDAN    SUNNY     88  55  33 SE23G33   30.07F

$$

UTZ012>022-026-027-241700-

SOUTHERN UTAH

CITY           SKY/WX    TMP DP  RH WIND       PRES   REMARKS
BRYCE CANYON   MOSUNNY   74  49  41 SE9       30.41S
CEDAR CITY     MOSUNNY   84  31  14 S16       30.19S
MILFORD        SUNNY     88  33  14 S18       30.12S
MOAB/CYNLANDS  SUNNY     87  50  27 SE14      30.14F
PRICE          CLOUDY    76  54  46 VRB5      30.28S
ST GEORGE      MOSUNNY   95  39  14 SE12      30.01R HX  91
KANAB            N/A     82  46  28 W3        30.23R

$$

REGIONAL REPORTS     COLORADO/ARIZONA

CITY           SKY/WX    TMP DP  RH WIND       PRES   REMARKS
CRAIG, CO      PTSUNNY   71  50  47 SW14      30.28F
GRAND JUNCTION CLOUDY    83  50  31 SE17      30.20F
RIFLE          CLOUDY    75  50  41 W5        30.26F
MONTROSE       PTSUNNY   77  55  46 N8        30.31F
CORTEZ         SUNNY     82  50  32 S8        30.31F
PAGE, AZ       CLOUDY    86  53  32 VRB6      30.15R
GRAND CANYON   PTSUNNY   78  50  37 SW6       30.36R
KINGMAN        MOSUNNY   93  49  22 VRB5      30.05S HX  90
FLAGSTAFF      CLOUDY    68  54  60 SW7       30.40S

$$

REGIONAL REPORTS    NEVADA/IDAHO/WYOMING

CITY           SKY/WX    TMP DP  RH WIND       PRES   REMARKS
LAS VEGAS, NV  MOSUNNY   98  30   9 S13       29.88R HX  92
ELY            SUNNY     77  27  15 CALM      30.21S
ELKO           SUNNY     76  28  17 W15       30.18S
POCATELLO, ID  SUNNY     70  44  39 SW28G33   30.14R
BURLEY         SUNNY     67  42  40 W9G24     30.17R
EVANSTON, WY   MOSUNNY   79  40  24 SW25G36   30.24F
ROCK SPRINGS   PTSUNNY   79  42  26 SW23G32   30.25S

$$



USA.gov is the U.S. government's official web portal to all federal, state and local government web resources and services.